FW1564 Weather Reports


Display with metric or nautical units.
time (UTC)temp
F
wind
direction
speed
MPH
gust
MPH
rain 1hr
in
rain 24hr
in
rain mn
in
humidity
%
barometer
mb
20260902035710 65 343 4.0 8.0 0.00 0.00 0.00 76 1019.9
20260902034710 65 352 4.0 8.0 0.00 0.00 0.00 77 1019.9
20260902033710 65 351 4.0 7.0 0.00 0.00 0.00 81 1019.9
20260902032709 65 332 4.0 6.0 0.00 0.00 0.00 85 1020.2
20260902031711 65 338 2.0 6.0 0.00 0.00 0.00 85 1020.1
20260902030711 65 342 2.0 4.0 0.00 0.00 0.00 83 1020.2
20260902025711 65 333 3.0 4.0 0.00 0.00 0.00 82 1020.4
20260902024710 65 354 2.0 4.0 0.00 0.00 0.00 82 1020.5
20260902023710 65 5 3.0 4.0 0.00 0.00 0.00 80 1020.7
20260902022710 64 345 4.0 6.0 0.00 0.00 0.00 80 1020.8
20260902021710 65 339 2.0 4.0 0.00 0.00 0.00 83 1020.6
20260902020711 65 338 3.0 6.0 0.00 0.00 0.00 83 1020.9
20260902015710 65 334 4.0 7.0 0.00 0.00 0.00 80 1021.0
20260902014710 65 320 4.0 7.0 0.00 0.00 0.00 81 1020.8
20260902014628 65 338 4.0 6.0 0.00 0.00 0.00 84 1020.9
20260902012710 65 350 1.0 7.0 0.00 0.00 0.00 84 1021.1
20260902012107 66 344 4.0 6.0 0.00 0.00 0.00 84 1021.2
20260902011737 66 341 2.0 4.0 0.00 0.00 0.00 82 1021.3
20260902005710 66 4 2.0 4.0 0.00 0.00 0.00 82 1021.3
20260902004710 65 334 2.0 4.0 0.00 0.00 0.00 83 1021.3
20260902004155 65 350 2.0 4.0 0.00 0.00 0.00 82 1021.6
20260902002711 65 346 2.0 4.0 0.00 0.00 0.00 81 1021.5
20260902001711 66 339 4.0 7.0 0.00 0.00 0.00 79 1021.3
20260902000711 66 341 4.0 8.0 0.00 0.00 0.00 81 1021.3
20260901235710 66 351 3.0 6.0 0.00 0.00 0.00 83 1021.6
20260901234711 66 324 3.0 0.0 0.00 0.00 0.00 84 1021.6
20260901233410 67 346 2.0 6.0 0.00 0.00 0.00 84 1021.7
20260901232409 67 342 3.0 4.0 0.00 0.00 0.00 84 1021.9
20260901231409 67 340 4.0 6.0 0.00 0.00 0.00 86 1021.8
20260901230413 67 349 2.0 4.0 0.00 0.00 0.00 86 1022.0
20260901225849 67 341 1.0 2.0 0.00 0.00 0.00 87 1022.2
20260901224408 68 22 0.0 1.0 0.00 0.00 0.00 89 1022.3
20260901223408 69 147 1.0 2.0 0.00 0.00 0.00 89 1022.2
20260901222411 69 145 1.0 2.0 0.00 0.00 0.00 87 1022.3
20260901221409 69 5 0.0 0.0 0.00 0.00 0.00 85 1022.3
20260901220409 69 22 1.0 2.0 0.00 0.00 0.00 84 1022.1
20260901215854 69 17 1.0 1.0 0.00 0.00 0.00 85 1022.3
20260901214409 69 315 1.0 2.0 0.00 0.00 0.00 86 1022.2
20260901213904 68 0 1.0 2.0 0.00 0.00 0.00 85 1022.3
20260901212409 68 346 1.0 3.0 0.00 0.00 0.00 86 1022.2
20260901211409 69 191 0.0 2.0 0.00 0.00 0.00 88 1022.0
20260901210408 68 350 1.0 2.0 0.00 0.00 0.00 87 1021.9
20260901205409 68 355 1.0 2.0 0.00 0.00 0.00 88 1021.9
20260901204852 68 356 0.0 1.0 0.00 0.00 0.00 89 1021.8
20260901203409 68 345 1.0 2.0 0.00 0.00 0.00 90 1021.7
20260901202409 68 27 0.0 2.0 0.00 0.00 0.00 91 1021.6
20260901201410 68 355 0.0 2.0 0.00 0.00 0.00 91 1021.0
20260901200851 69 332 0.0 1.0 0.00 0.00 0.00 90 1021.0
20260901195409 69 140 0.0 1.0 0.00 0.00 0.00 90 1021.0
20260901194410 69 194 0.0 1.0 0.00 0.00 0.00 90 1021.2
20260901193409 69 197 0.0 2.0 0.00 0.00 0.00 90 1021.0
20260901192849 70 158 1.0 2.0 0.00 0.00 0.00 89 1020.9
20260901191409 70 165 0.0 3.0 0.00 0.00 0.00 89 1020.9
20260901190845 71 165 1.0 4.0 0.00 0.00 0.00 88 1021.2
20260901185849 71 146 1.0 2.0 0.00 0.00 0.00 87 1021.0
20260901184410 71 127 2.0 3.0 0.00 0.00 0.00 86 1021.0
20260901183409 71 144 2.0 4.0 0.00 0.00 0.00 86 1021.0
20260901182409 72 144 2.0 2.0 0.00 0.00 0.00 85 1020.8
20260901181409 72 138 2.0 3.0 0.00 0.00 0.00 85 1021.0
20260901180410 72 171 1.0 3.0 0.00 0.00 0.00 85 1021.2
20260901175408 72 153 2.0 6.0 0.00 0.00 0.00 85 1021.3
20260901174409 72 108 2.0 4.0 0.00 0.00 0.00 85 1021.1
20260901173357 72 179 0.0 6.0 0.00 0.00 0.00 85 1021.5
20260901172351 72 117 1.0 6.0 0.00 0.00 0.00 85 1021.2
20260901171351 73 132 4.0 6.0 0.00 0.00 0.00 84 1021.1
20260901170351 73 113 3.0 6.0 0.00 0.00 0.00 84 1021.3
20260901165349 73 119 0.0 4.0 0.00 0.00 0.00 85 1021.2
20260901164350 73 182 3.0 7.0 0.00 0.00 0.00 84 1021.3
20260901163350 73 124 2.0 6.0 0.00 0.00 0.00 84 1021.2
20260901162350 73 192 2.0 6.0 0.00 0.00 0.00 85 1021.3
20260901161351 72 163 3.0 8.0 0.00 0.00 0.00 85 1021.5
20260901160350 73 194 2.0 4.0 0.00 0.00 0.00 84 1021.5
20260901155350 73 147 2.0 4.0 0.00 0.00 0.00 85 1021.3
20260901154349 72 134 2.0 6.0 0.00 0.00 0.00 84 1021.7
20260901153350 73 161 2.0 7.0 0.00 0.00 0.00 84 1021.6
20260901152844 73 199 2.0 3.0 0.00 0.00 0.00 83 1022.0
20260901151350 73 146 4.0 8.0 0.00 0.00 0.00 83 1022.1
20260901150346 74 292 1.0 8.0 0.00 0.00 0.00 81 1021.9
20260901150304 76 186 4.0 9.0 0.00 0.00 0.00 79 1022.2
20260901144346 76 164 5.0 7.0 0.00 0.00 0.00 79 1022.1
20260901143346 75 122 3.0 7.0 0.00 0.00 0.00 79 1022.0
20260901142346 75 145 3.0 7.0 0.00 0.00 0.00 80 1022.2
20260901141346 74 276 0.0 10.0 0.00 0.00 0.00 81 1022.2
20260901140346 74 135 6.0 9.0 0.00 0.00 0.00 81 1022.4
20260901135346 75 209 2.0 7.0 0.00 0.00 0.00 79 1022.3
20260901134346 76 178 3.0 9.0 0.00 0.00 0.00 78 1022.3
20260901133345 76 167 3.0 7.0 0.00 0.00 0.00 78 1022.4
20260901132346 76 104 3.0 9.0 0.00 0.00 0.00 78 1022.5
20260901131343 75 163 4.0 7.0 0.00 0.00 0.00 79 1022.4
20260901130342 75 129 6.0 9.0 0.00 0.00 0.00 79 1022.5
20260901125343 77 90 4.0 8.0 0.00 0.00 0.00 76 1022.4
20260901124343 75 183 4.0 10.0 0.00 0.00 0.00 79 1022.7
20260901123336 77 167 4.0 9.0 0.00 0.00 0.00 78 1022.5
20260901122336 75 102 2.0 7.0 0.00 0.00 0.00 80 1022.5
20260901121337 75 135 5.0 9.0 0.00 0.00 0.00 80 1022.4
20260901120824 75 131 4.0 7.0 0.00 0.00 0.00 81 1022.7
20260901115822 77 155 2.0 9.0 0.00 0.00 0.00 78 1022.7
20260901114336 75 137 2.0 9.0 0.00 0.00 0.00 78 1022.8
20260901113336 75 141 2.0 7.0 0.00 0.00 0.00 79 1022.7
20260901112336 75 152 4.0 6.0 0.00 0.00 0.00 80 1022.8
20260901111336 76 161 3.0 8.0 0.00 0.00 0.00 77 1022.9
20260901110337 76 162 3.0 8.0 0.00 0.00 0.00 77 1022.7
20260901105337 76 199 3.0 8.0 0.00 0.00 0.00 77 1022.7
20260901105329 76 115 3.0 9.0 0.00 0.00 0.00 77 1022.5
20260901103336 76 163 1.0 7.0 0.00 0.00 0.00 75 1022.6
20260901102336 76 136 6.0 8.0 0.00 0.00 0.00 76 1022.5
20260901101336 75 121 1.0 7.0 0.00 0.00 0.00 76 1022.3
20260901100335 74 124 1.0 6.0 0.00 0.00 0.00 78 1022.2
20260901095320 74 169 4.0 7.0 0.00 0.00 0.00 77 1022.2
20260901094319 74 175 4.0 4.0 0.00 0.00 0.00 77 1022.2
20260901093319 74 115 2.0 4.0 0.00 0.00 0.00 76 1022.0
20260901092757 73 79 0.0 2.0 0.00 0.00 0.00 73 1022.0
20260901091320 72 4 1.0 2.0 0.00 0.00 0.00 72 1021.9
20260901090305 73 357 0.0 2.0 0.00 0.00 0.00 70 1022.0
20260901085738 72 140 1.0 2.0 0.00 0.00 0.00 69 1021.8
20260901084748 71 41 1.0 3.0 0.00 0.00 0.00 69 1022.0
20260901083748 70 16 0.0 4.0 0.00 0.00 0.00 64 1022.0
20260901082306 69 10 2.0 3.0 0.00 0.00 0.00 62 1021.9
20260901081306 69 7 2.0 6.0 0.00 0.00 0.00 64 1022.0
20260901080735 68 351 4.0 6.0 0.00 0.00 0.00 63 1022.0
20260901075307 68 10 3.0 4.0 0.00 0.00 0.00 64 1021.9
20260901074304 67 312 2.0 6.0 0.00 0.00 0.00 64 1022.0
20260901073305 67 340 3.0 4.0 0.00 0.00 0.00 63 1021.9
20260901072258 66 328 3.0 4.0 0.00 0.00 0.00 65 1021.7
20260901071258 66 344 1.0 3.0 0.00 0.00 0.00 64 1021.7
20260901070259 66 330 3.0 3.0 0.00 0.00 0.00 63 1021.7
20260901065258 66 340 2.0 6.0 0.00 0.00 0.00 62 1021.2
20260901064258 67 340 2.0 3.0 0.00 0.00 0.00 66 1021.1
20260901063259 66 334 1.0 3.0 0.00 0.00 0.00 67 1021.2
20260901062258 66 349 2.0 2.0 0.00 0.00 0.00 64 1021.1
20260901061259 66 334 1.0 4.0 0.00 0.00 0.00 63 1020.8
20260901060743 66 345 1.0 2.0 0.00 0.00 0.00 65 1020.7
20260901055256 66 338 2.0 3.0 0.00 0.00 0.00 66 1020.9
20260901053256 66 346 1.0 2.0 0.00 0.00 0.00 65 1020.5
20260901052255 66 316 1.0 2.0 0.00 0.00 0.00 64 1020.7
20260901051743 67 313 0.0 2.0 0.00 0.00 0.00 63 1020.8
20260901050308 67 332 0.0 3.0 0.00 0.00 0.00 62 1020.9
20260901045730 66 4 2.0 3.0 0.00 0.00 0.00 66 1020.8
20260901044251 66 351 2.0 3.0 0.00 0.00 0.00 63 1020.8
20260901043725 67 342 2.0 3.0 0.00 0.00 0.00 61 1020.7
20260901042250 67 339 1.0 4.0 0.00 0.00 0.00 62 1020.9
20260901041252 66 352 2.0 3.0 0.00 0.00 0.00 63 1021.2